| time (UTC) | temp F | wind direction | speed MPH | gust MPH | rain 1hr in | rain 24hr in | rain mn in | humidity % | barometer mb |
| 20260901012003 | 87 | 232 | 12.0 | 20.0 | 0.00 | 0.00 | 0.00 | 25 | 1020.0 |
| 20260901011503 | 87 | 222 | 11.0 | 20.0 | 0.00 | 0.00 | 0.00 | 24 | 1020.2 |
| 20260901011003 | 87 | 219 | 6.0 | 16.0 | 0.00 | 0.00 | 0.00 | 25 | 1020.2 |
| 20260901010003 | 87 | 205 | 12.0 | 21.0 | 0.00 | 0.00 | 0.00 | 27 | 1020.2 |
| 20260901005503 | 87 | 208 | 12.0 | 20.0 | 0.00 | 0.00 | 0.00 | 27 | 1020.3 |
| 20260901005004 | 88 | 207 | 14.0 | 22.0 | 0.00 | 0.00 | 0.00 | 26 | 1020.4 |
| 20260901004504 | 88 | 214 | 10.0 | 20.0 | 0.00 | 0.00 | 0.00 | 26 | 1020.1 |
| 20260901003504 | 88 | 218 | 11.0 | 18.0 | 0.00 | 0.00 | 0.00 | 25 | 1020.3 |
| 20260901003003 | 88 | 211 | 13.0 | 23.0 | 0.00 | 0.00 | 0.00 | 24 | 1020.3 |
| 20260901002004 | 88 | 198 | 16.0 | 25.0 | 0.00 | 0.00 | 0.00 | 25 | 1020.3 |
| 20260901001504 | 89 | 195 | 15.0 | 22.0 | 0.00 | 0.00 | 0.00 | 24 | 1020.3 |
| 20260901001003 | 89 | 205 | 14.0 | 26.0 | 0.00 | 0.00 | 0.00 | 23 | 1020.1 |
| 20260901000004 | 89 | 206 | 16.0 | 23.0 | 0.00 | 0.00 | 0.00 | 23 | 1020.3 |
| 20260831235503 | 89 | 202 | 16.0 | 23.0 | 0.00 | 0.00 | 0.00 | 23 | 1020.3 |
| 20260831235004 | 90 | 211 | 15.0 | 22.0 | 0.00 | 0.00 | 0.00 | 23 | 1020.3 |
| 20260831234505 | 90 | 198 | 13.0 | 20.0 | 0.00 | 0.00 | 0.00 | 21 | 1020.4 |
| 20260831234003 | 90 | 212 | 16.0 | 22.0 | 0.00 | 0.00 | 0.00 | 21 | 1020.2 |
| 20260831233503 | 90 | 203 | 14.0 | 23.0 | 0.00 | 0.00 | 0.00 | 22 | 1020.2 |
| 20260831233004 | 90 | 200 | 16.0 | 29.0 | 0.00 | 0.00 | 0.00 | 21 | 1020.2 |
| 20260831232504 | 90 | 182 | 16.0 | 23.0 | 0.00 | 0.00 | 0.00 | 21 | 1020.3 |
| 20260831232004 | 90 | 197 | 15.0 | 24.0 | 0.00 | 0.00 | 0.00 | 21 | 1020.3 |
| 20260831231504 | 91 | 199 | 13.0 | 20.0 | 0.00 | 0.00 | 0.00 | 21 | 1020.4 |
| 20260831231004 | 91 | 202 | 13.0 | 20.0 | 0.00 | 0.00 | 0.00 | 20 | 1020.5 |
| 20260831230504 | 91 | 216 | 15.0 | 26.0 | 0.00 | 0.00 | 0.00 | 21 | 1020.4 |
| 20260831230004 | 90 | 182 | 16.0 | 26.0 | 0.00 | 0.00 | 0.00 | 21 | 1020.7 |
| 20260831225504 | 90 | 194 | 15.0 | 25.0 | 0.00 | 0.00 | 0.00 | 21 | 1020.6 |
| 20260831224504 | 91 | 206 | 16.0 | 29.0 | 0.00 | 0.00 | 0.00 | 21 | 1020.5 |
| 20260831224003 | 91 | 196 | 14.0 | 21.0 | 0.00 | 0.00 | 0.00 | 21 | 1020.7 |
| 20260831223503 | 91 | 192 | 16.0 | 23.0 | 0.00 | 0.00 | 0.00 | 20 | 1020.8 |
| 20260831223004 | 91 | 215 | 13.0 | 24.0 | 0.00 | 0.00 | 0.00 | 20 | 1020.7 |
| 20260831222003 | 92 | 214 | 13.0 | 21.0 | 0.00 | 0.00 | 0.00 | 19 | 1020.9 |
| 20260831221504 | 91 | 217 | 10.0 | 20.0 | 0.00 | 0.00 | 0.00 | 20 | 1020.9 |
| 20260831221004 | 90 | 191 | 17.0 | 26.0 | 0.00 | 0.00 | 0.00 | 21 | 1021.0 |
| 20260831220504 | 91 | 198 | 14.0 | 21.0 | 0.00 | 0.00 | 0.00 | 21 | 1020.8 |
| 20260831220004 | 92 | 202 | 14.0 | 21.0 | 0.00 | 0.00 | 0.00 | 21 | 1021.0 |
| 20260831214504 | 90 | 204 | 16.0 | 24.0 | 0.00 | 0.00 | 0.00 | 23 | 1021.2 |
| 20260831214004 | 90 | 197 | 14.0 | 24.0 | 0.00 | 0.00 | 0.00 | 23 | 1021.2 |
| 20260831213503 | 90 | 202 | 16.0 | 25.0 | 0.00 | 0.00 | 0.00 | 23 | 1021.1 |
| 20260831213003 | 91 | 207 | 16.0 | 23.0 | 0.00 | 0.00 | 0.00 | 23 | 1021.3 |
| 20260831212503 | 91 | 220 | 16.0 | 21.0 | 0.00 | 0.00 | 0.00 | 23 | 1021.4 |
| 20260831212004 | 90 | 202 | 12.0 | 23.0 | 0.00 | 0.00 | 0.00 | 24 | 1021.6 |
| 20260831211503 | 90 | 196 | 15.0 | 30.0 | 0.00 | 0.00 | 0.00 | 25 | 1021.6 |
| 20260831211003 | 90 | 195 | 15.0 | 24.0 | 0.00 | 0.00 | 0.00 | 25 | 1021.7 |
| 20260831210504 | 90 | 195 | 13.0 | 24.0 | 0.00 | 0.00 | 0.00 | 25 | 1021.8 |
| 20260831210003 | 90 | 204 | 16.0 | 24.0 | 0.00 | 0.00 | 0.00 | 25 | 1021.8 |
| 20260831205503 | 90 | 195 | 14.0 | 21.0 | 0.00 | 0.00 | 0.00 | 25 | 1021.9 |
| 20260831205004 | 90 | 195 | 16.0 | 23.0 | 0.00 | 0.00 | 0.00 | 25 | 1021.9 |
| 20260831204003 | 90 | 192 | 17.0 | 26.0 | 0.00 | 0.00 | 0.00 | 25 | 1021.8 |
| 20260831203503 | 90 | 188 | 14.0 | 25.0 | 0.00 | 0.00 | 0.00 | 25 | 1021.8 |
| 20260831202504 | 90 | 193 | 13.0 | 22.0 | 0.00 | 0.00 | 0.00 | 26 | 1022.1 |
| 20260831202004 | 90 | 166 | 14.0 | 22.0 | 0.00 | 0.00 | 0.00 | 26 | 1022.1 |
| 20260831201503 | 90 | 186 | 13.0 | 23.0 | 0.00 | 0.00 | 0.00 | 26 | 1022.1 |
| 20260831200503 | 90 | 169 | 14.0 | 24.0 | 0.00 | 0.00 | 0.00 | 25 | 1022.3 |
| 20260831200004 | 90 | 165 | 13.0 | 22.0 | 0.00 | 0.00 | 0.00 | 24 | 1022.3 |
| 20260831195503 | 90 | 166 | 13.0 | 24.0 | 0.00 | 0.00 | 0.00 | 24 | 1022.1 |
| 20260831194504 | 90 | 166 | 14.0 | 26.0 | 0.00 | 0.00 | 0.00 | 23 | 1022.3 |
| 20260831194003 | 90 | 152 | 14.0 | 20.0 | 0.00 | 0.00 | 0.00 | 25 | 1022.3 |
| 20260831193503 | 89 | 165 | 15.0 | 22.0 | 0.00 | 0.00 | 0.00 | 25 | 1022.4 |
| 20260831193003 | 89 | 185 | 13.0 | 23.0 | 0.00 | 0.00 | 0.00 | 26 | 1022.5 |
| 20260831192504 | 89 | 188 | 13.0 | 23.0 | 0.00 | 0.00 | 0.00 | 25 | 1022.5 |
| 20260831191503 | 89 | 187 | 13.0 | 24.0 | 0.00 | 0.00 | 0.00 | 25 | 1022.7 |
| 20260831191004 | 89 | 189 | 11.0 | 20.0 | 0.00 | 0.00 | 0.00 | 25 | 1022.7 |
| 20260831190503 | 89 | 194 | 11.0 | 20.0 | 0.00 | 0.00 | 0.00 | 26 | 1022.7 |
| 20260831190005 | 88 | 216 | 12.0 | 20.0 | 0.00 | 0.00 | 0.00 | 27 | 1022.8 |
| 20260831185503 | 88 | 205 | 12.0 | 20.0 | 0.00 | 0.00 | 0.00 | 29 | 1023.0 |
| 20260831185004 | 88 | 215 | 10.0 | 18.0 | 0.00 | 0.00 | 0.00 | 28 | 1022.9 |
| 20260831184503 | 88 | 189 | 12.0 | 17.0 | 0.00 | 0.00 | 0.00 | 28 | 1022.9 |
| 20260831184004 | 88 | 201 | 10.0 | 17.0 | 0.00 | 0.00 | 0.00 | 29 | 1023.1 |
| 20260831183503 | 88 | 199 | 9.0 | 13.0 | 0.00 | 0.00 | 0.00 | 30 | 1023.2 |
| 20260831183004 | 88 | 188 | 11.0 | 17.0 | 0.00 | 0.00 | 0.00 | 31 | 1023.1 |
| 20260831182003 | 87 | 197 | 10.0 | 15.0 | 0.00 | 0.00 | 0.00 | 31 | 1023.2 |
| 20260831181503 | 87 | 226 | 9.0 | 13.0 | 0.00 | 0.00 | 0.00 | 31 | 1023.2 |
| 20260831181005 | 88 | 213 | 9.0 | 14.0 | 0.00 | 0.00 | 0.00 | 30 | 1023.0 |
| 20260831180004 | 88 | 174 | 7.0 | 12.0 | 0.00 | 0.00 | 0.00 | 28 | 1023.1 |
| 20260831175503 | 88 | 149 | 7.0 | 13.0 | 0.00 | 0.00 | 0.00 | 23 | 1023.1 |
| 20260831174003 | 88 | 90 | 1.0 | 8.0 | 0.00 | 0.00 | 0.00 | 24 | 1022.9 |
| 20260831173504 | 87 | 87 | 1.0 | 6.0 | 0.00 | 0.00 | 0.00 | 24 | 1023.1 |
| 20260831173004 | 87 | 110 | 3.0 | 7.0 | 0.00 | 0.00 | 0.00 | 24 | 1023.0 |
| 20260831172504 | 86 | 64 | 1.0 | 7.0 | 0.00 | 0.00 | 0.00 | 24 | 1023.0 |
| 20260831171503 | 87 | 79 | 2.0 | 6.0 | 0.00 | 0.00 | 0.00 | 24 | 1023.0 |
| 20260831171029 | 86 | 123 | 2.0 | 6.0 | 0.00 | 0.00 | 0.00 | 24 | 1023.0 |
| 20260831170518 | 86 | 87 | 1.0 | 7.0 | 0.00 | 0.00 | 0.00 | 25 | 1023.0 |
| 20260831170004 | 85 | 100 | 2.0 | 7.0 | 0.00 | 0.00 | 0.00 | 25 | 1022.9 |
| 20260831165504 | 85 | 142 | 1.0 | 7.0 | 0.00 | 0.00 | 0.00 | 25 | 1022.9 |
| 20260831165005 | 85 | 158 | 2.0 | 6.0 | 0.00 | 0.00 | 0.00 | 25 | 1023.0 |
| 20260831164504 | 85 | 147 | 3.0 | 5.0 | 0.00 | 0.00 | 0.00 | 25 | 1023.0 |
| 20260831164003 | 85 | 131 | 2.0 | 7.0 | 0.00 | 0.00 | 0.00 | 25 | 1023.0 |
| 20260831163504 | 85 | 118 | 3.0 | 8.0 | 0.00 | 0.00 | 0.00 | 25 | 1023.0 |
| 20260831163003 | 85 | 125 | 4.0 | 7.0 | 0.00 | 0.00 | 0.00 | 25 | 1022.9 |
| 20260831162503 | 84 | 136 | 0.0 | 3.0 | 0.00 | 0.00 | 0.00 | 25 | 1022.9 |
| 20260831162004 | 84 | 153 | 3.0 | 7.0 | 0.00 | 0.00 | 0.00 | 25 | 1023.0 |
| 20260831161503 | 85 | 133 | 3.0 | 5.0 | 0.00 | 0.00 | 0.00 | 25 | 1022.9 |
| 20260831160004 | 84 | 88 | 1.0 | 5.0 | 0.00 | 0.00 | 0.00 | 25 | 1022.8 |
| 20260831155503 | 84 | 124 | 1.0 | 2.0 | 0.00 | 0.00 | 0.00 | 25 | 1022.8 |
| 20260831155004 | 84 | 123 | 2.0 | 3.0 | 0.00 | 0.00 | 0.00 | 25 | 1022.9 |
| 20260831154504 | 84 | 97 | 0.0 | 7.0 | 0.00 | 0.00 | 0.00 | 26 | 1022.8 |
| 20260831154004 | 83 | 78 | 0.0 | 3.0 | 0.00 | 0.00 | 0.00 | 26 | 1022.8 |
| 20260831153504 | 82 | 145 | 0.0 | 2.0 | 0.00 | 0.00 | 0.00 | 27 | 1022.7 |
| 20260831153003 | 82 | 146 | 1.0 | 3.0 | 0.00 | 0.00 | 0.00 | 27 | 1022.8 |
| 20260831152503 | 81 | 163 | 1.0 | 3.0 | 0.00 | 0.00 | 0.00 | 28 | 1022.7 |
| 20260831152003 | 81 | 162 | 2.0 | 3.0 | 0.00 | 0.00 | 0.00 | 28 | 1022.6 |
| 20260831151504 | 80 | 216 | 0.0 | 0.0 | 0.00 | 0.00 | 0.00 | 28 | 1022.6 |
| 20260831151004 | 80 | 228 | 0.0 | 2.0 | 0.00 | 0.00 | 0.00 | 29 | 1022.6 |
| 20260831150504 | 79 | 234 | 0.0 | 0.0 | 0.00 | 0.00 | 0.00 | 29 | 1022.4 |
| 20260831145504 | 78 | 209 | 1.0 | 3.0 | 0.00 | 0.00 | 0.00 | 30 | 1022.5 |
| 20260831145004 | 77 | 215 | 1.0 | 3.0 | 0.00 | 0.00 | 0.00 | 31 | 1022.4 |
| 20260831144504 | 77 | 219 | 1.0 | 3.0 | 0.00 | 0.00 | 0.00 | 32 | 1022.4 |
| 20260831144004 | 76 | 235 | 1.0 | 3.0 | 0.00 | 0.00 | 0.00 | 32 | 1022.3 |
| 20260831143504 | 75 | 233 | 0.0 | 3.0 | 0.00 | 0.00 | 0.00 | 33 | 1022.3 |
| 20260831143003 | 74 | 233 | 0.0 | 0.0 | 0.00 | 0.00 | 0.00 | 33 | 1022.3 |
| 20260831142503 | 73 | 232 | 0.0 | 0.0 | 0.00 | 0.00 | 0.00 | 34 | 1022.3 |
| 20260831142004 | 72 | 232 | 0.0 | 3.0 | 0.00 | 0.00 | 0.00 | 34 | 1022.2 |
| 20260831141503 | 72 | 244 | 1.0 | 3.0 | 0.00 | 0.00 | 0.00 | 34 | 1022.2 |
| 20260831141004 | 71 | 241 | 1.0 | 3.0 | 0.00 | 0.00 | 0.00 | 34 | 1022.2 |
| 20260831140503 | 71 | 238 | 1.0 | 3.0 | 0.00 | 0.00 | 0.00 | 35 | 1021.9 |
| 20260831140003 | 70 | 242 | 0.0 | 1.0 | 0.00 | 0.00 | 0.00 | 35 | 1021.9 |
| 20260831135504 | 70 | 231 | 0.0 | 3.0 | 0.00 | 0.00 | 0.00 | 36 | 1021.8 |
| 20260831135005 | 69 | 236 | 1.0 | 3.0 | 0.00 | 0.00 | 0.00 | 36 | 1021.8 |
| 20260831134504 | 68 | 242 | 1.0 | 3.0 | 0.00 | 0.00 | 0.00 | 37 | 1021.7 |
| 20260831134003 | 67 | 240 | 0.0 | 5.0 | 0.00 | 0.00 | 0.00 | 37 | 1021.6 |
| 20260831133503 | 67 | 228 | 1.0 | 5.0 | 0.00 | 0.00 | 0.00 | 37 | 1021.5 |
| 20260831133004 | 66 | 247 | 2.0 | 3.0 | 0.00 | 0.00 | 0.00 | 37 | 1021.4 |
| 20260831132504 | 66 | 249 | 1.0 | 3.0 | 0.00 | 0.00 | 0.00 | 37 | 1021.3 |
| 20260831131503 | 67 | 244 | 3.0 | 5.0 | 0.00 | 0.00 | 0.00 | 36 | 1021.3 |
| 20260831131004 | 67 | 239 | 1.0 | 5.0 | 0.00 | 0.00 | 0.00 | 36 | 1021.3 |
| 20260831130003 | 67 | 246 | 1.0 | 3.0 | 0.00 | 0.00 | 0.00 | 36 | 1021.3 |
| 20260831125503 | 67 | 240 | 2.0 | 3.0 | 0.00 | 0.00 | 0.00 | 35 | 1021.3 |
| 20260831125003 | 68 | 255 | 2.0 | 3.0 | 0.00 | 0.00 | 0.00 | 36 | 1021.2 |
| 20260831124503 | 68 | 241 | 1.0 | 3.0 | 0.00 | 0.00 | 0.00 | 35 | 1021.2 |
| 20260831124005 | 68 | 245 | 2.0 | 5.0 | 0.00 | 0.00 | 0.00 | 35 | 1021.2 |
| 20260831123503 | 68 | 223 | 0.0 | 1.0 | 0.00 | 0.00 | 0.00 | 36 | 1021.1 |
| 20260831123004 | 68 | 222 | 0.0 | 2.0 | 0.00 | 0.00 | 0.00 | 36 | 1021.3 |
| 20260831122003 | 67 | 227 | 3.0 | 5.0 | 0.00 | 0.00 | 0.00 | 36 | 1021.1 |
| 20260831121504 | 67 | 233 | 2.0 | 7.0 | 0.00 | 0.00 | 0.00 | 36 | 1021.2 |
| 20260831121003 | 66 | 247 | 3.0 | 3.0 | 0.00 | 0.00 | 0.00 | 37 | 1021.1 |
| 20260831120503 | 66 | 242 | 0.0 | 2.0 | 0.00 | 0.00 | 0.00 | 38 | 1021.0 |
| 20260831120004 | 66 | 227 | 0.0 | 0.0 | 0.00 | 0.00 | 0.00 | 38 | 1021.0 |
| 20260831115503 | 66 | 227 | 0.0 | 0.0 | 0.00 | 0.00 | 0.00 | 39 | 1020.9 |
| 20260831115004 | 65 | 225 | 0.0 | 0.0 | 0.00 | 0.00 | 0.00 | 40 | 1020.9 |
| 20260831114504 | 65 | 219 | 0.0 | 0.0 | 0.00 | 0.00 | 0.00 | 40 | 1020.9 |
| 20260831114004 | 66 | 219 | 0.0 | 0.0 | 0.00 | 0.00 | 0.00 | 40 | 1020.8 |
| 20260831113504 | 66 | 219 | 0.0 | 0.0 | 0.00 | 0.00 | 0.00 | 40 | 1020.8 |
| 20260831113003 | 66 | 219 | 0.0 | 0.0 | 0.00 | 0.00 | 0.00 | 40 | 1021.1 |
| 20260831112504 | 66 | 219 | 0.0 | 0.0 | 0.00 | 0.00 | 0.00 | 40 | 1021.0 |
| 20260831112004 | 66 | 219 | 0.0 | 0.0 | 0.00 | 0.00 | 0.00 | 41 | 1021.0 |
| 20260831111503 | 66 | 219 | 0.0 | 0.0 | 0.00 | 0.00 | 0.00 | 42 | 1021.0 |
| 20260831111004 | 65 | 219 | 0.0 | 0.0 | 0.00 | 0.00 | 0.00 | 43 | 1021.0 |
| 20260831110004 | 66 | 219 | 0.0 | 0.0 | 0.00 | 0.00 | 0.00 | 43 | 1021.0 |
| 20260831105504 | 66 | 219 | 0.0 | 0.0 | 0.00 | 0.00 | 0.00 | 43 | 1021.0 |
| 20260831105004 | 66 | 219 | 0.0 | 0.0 | 0.00 | 0.00 | 0.00 | 43 | 1021.0 |
| 20260831104504 | 66 | 213 | 0.0 | 0.0 | 0.00 | 0.00 | 0.00 | 42 | 1021.0 |
| 20260831103504 | 66 | 205 | 0.0 | 0.0 | 0.00 | 0.00 | 0.00 | 44 | 1021.0 |
| 20260831103004 | 66 | 203 | 0.0 | 0.0 | 0.00 | 0.00 | 0.00 | 44 | 1021.0 |
| 20260831102503 | 66 | 195 | 0.0 | 0.0 | 0.00 | 0.00 | 0.00 | 43 | 1020.9 |
| 20260831102004 | 67 | 194 | 0.0 | 0.0 | 0.00 | 0.00 | 0.00 | 43 | 1020.8 |
| 20260831101503 | 67 | 194 | 0.0 | 0.0 | 0.00 | 0.00 | 0.00 | 42 | 1020.8 |
| 20260831101003 | 67 | 194 | 0.0 | 0.0 | 0.00 | 0.00 | 0.00 | 42 | 1020.8 |
| 20260831100003 | 67 | 194 | 0.0 | 1.0 | 0.00 | 0.00 | 0.00 | 43 | 1020.9 |
| 20260831095504 | 67 | 192 | 0.0 | 0.0 | 0.00 | 0.00 | 0.00 | 43 | 1020.9 |
| 20260831095003 | 67 | 192 | 0.0 | 0.0 | 0.00 | 0.00 | 0.00 | 43 | 1021.0 |
| 20260831094503 | 68 | 192 | 0.0 | 0.0 | 0.00 | 0.00 | 0.00 | 42 | 1020.9 |
| 20260831094004 | 69 | 186 | 0.0 | 0.0 | 0.00 | 0.00 | 0.00 | 40 | 1020.9 |
| 20260831093503 | 70 | 186 | 0.0 | 0.0 | 0.00 | 0.00 | 0.00 | 40 | 1020.9 |
| 20260831093004 | 70 | 186 | 0.0 | 0.0 | 0.00 | 0.00 | 0.00 | 40 | 1020.8 |
| 20260831092004 | 69 | 186 | 0.0 | 1.0 | 0.00 | 0.00 | 0.00 | 42 | 1020.8 |
| 20260831091504 | 68 | 182 | 0.0 | 0.0 | 0.00 | 0.00 | 0.00 | 43 | 1020.8 |
| 20260831091004 | 68 | 182 | 0.0 | 0.0 | 0.00 | 0.00 | 0.00 | 42 | 1020.8 |
| 20260831090503 | 68 | 178 | 0.0 | 0.0 | 0.00 | 0.00 | 0.00 | 42 | 1020.8 |
| 20260831090004 | 69 | 178 | 0.0 | 0.0 | 0.00 | 0.00 | 0.00 | 41 | 1020.8 |
| 20260831085503 | 69 | 178 | 0.0 | 0.0 | 0.00 | 0.00 | 0.00 | 41 | 1020.8 |
| 20260831085003 | 70 | 178 | 0.0 | 0.0 | 0.00 | 0.00 | 0.00 | 40 | 1020.8 |
| 20260831084504 | 70 | 178 | 0.0 | 0.0 | 0.00 | 0.00 | 0.00 | 41 | 1020.9 |
| 20260831084003 | 70 | 178 | 0.0 | 0.0 | 0.00 | 0.00 | 0.00 | 40 | 1021.1 |
| 20260831083503 | 70 | 178 | 0.0 | 0.0 | 0.00 | 0.00 | 0.00 | 41 | 1021.1 |
| 20260831083004 | 69 | 178 | 0.0 | 0.0 | 0.00 | 0.00 | 0.00 | 41 | 1021.2 |
| 20260831082504 | 69 | 178 | 0.0 | 0.0 | 0.00 | 0.00 | 0.00 | 42 | 1021.2 |
| 20260831082004 | 70 | 178 | 0.0 | 0.0 | 0.00 | 0.00 | 0.00 | 41 | 1021.2 |
| 20260831081504 | 70 | 178 | 0.0 | 0.0 | 0.00 | 0.00 | 0.00 | 41 | 1021.1 |
| 20260831081004 | 70 | 178 | 0.0 | 0.0 | 0.00 | 0.00 | 0.00 | 40 | 1021.2 |
| 20260831080504 | 71 | 178 | 0.0 | 0.0 | 0.00 | 0.00 | 0.00 | 40 | 1021.2 |
| 20260831080005 | 71 | 178 | 0.0 | 2.0 | 0.00 | 0.00 | 0.00 | 40 | 1021.2 |
| 20260831075004 | 71 | 178 | 0.0 | 1.0 | 0.00 | 0.00 | 0.00 | 39 | 1021.3 |
| 20260831074004 | 72 | 199 | 0.0 | 3.0 | 0.00 | 0.00 | 0.00 | 39 | 1021.0 |
| 20260831073504 | 72 | 200 | 2.0 | 3.0 | 0.00 | 0.00 | 0.00 | 39 | 1021.0 |
| 20260831073004 | 73 | 205 | 0.0 | 0.0 | 0.00 | 0.00 | 0.00 | 37 | 1021.1 |
| 20260831072503 | 74 | 205 | 0.0 | 0.0 | 0.00 | 0.00 | 0.00 | 37 | 1021.1 |
| 20260831072004 | 74 | 205 | 0.0 | 1.0 | 0.00 | 0.00 | 0.00 | 36 | 1021.2 |
| 20260831071503 | 75 | 205 | 0.0 | 0.0 | 0.00 | 0.00 | 0.00 | 36 | 1021.2 |
| 20260831071004 | 76 | 205 | 0.0 | 0.0 | 0.00 | 0.00 | 0.00 | 35 | 1021.1 |
| 20260831070503 | 76 | 205 | 0.0 | 0.0 | 0.00 | 0.00 | 0.00 | 35 | 1021.1 |
| 20260831065503 | 77 | 205 | 0.0 | 0.0 | 0.00 | 0.00 | 0.00 | 35 | 1021.1 |
| 20260831065003 | 77 | 205 | 0.0 | 0.0 | 0.00 | 0.00 | 0.00 | 35 | 1021.1 |
| 20260831064504 | 78 | 275 | 0.0 | 0.0 | 0.00 | 0.00 | 0.00 | 34 | 1021.0 |
| 20260831064004 | 78 | 275 | 0.0 | 2.0 | 0.00 | 0.00 | 0.00 | 34 | 1021.1 |
| 20260831063505 | 79 | 341 | 0.0 | 2.0 | 0.00 | 0.00 | 0.00 | 34 | 1021.0 |
| 20260831063003 | 79 | 340 | 1.0 | 3.0 | 0.00 | 0.00 | 0.00 | 33 | 1021.1 |
| 20260831062504 | 80 | 34 | 1.0 | 3.0 | 0.00 | 0.00 | 0.00 | 33 | 1021.2 |
| 20260831062004 | 79 | 331 | 1.0 | 7.0 | 0.00 | 0.00 | 0.00 | 35 | 1021.1 |
| 20260831061504 | 78 | 298 | 0.0 | 0.0 | 0.00 | 0.00 | 0.00 | 37 | 1021.1 |
| 20260831061004 | 78 | 297 | 0.0 | 0.0 | 0.00 | 0.00 | 0.00 | 37 | 1021.1 |
| 20260831060503 | 79 | 297 | 0.0 | 3.0 | 0.00 | 0.00 | 0.00 | 37 | 1021.2 |
| 20260831060004 | 79 | 276 | 0.0 | 5.0 | 0.00 | 0.00 | 0.00 | 37 | 1021.1 |
| 20260831055504 | 79 | 313 | 3.0 | 8.0 | 0.00 | 0.00 | 0.00 | 38 | 1021.1 |
| 20260831055004 | 79 | 289 | 3.0 | 9.0 | 0.00 | 0.00 | 0.00 | 38 | 1021.2 |
| 20260831054004 | 80 | 274 | 2.0 | 8.0 | 0.00 | 0.00 | 0.00 | 36 | 1021.0 |
| 20260831053503 | 80 | 253 | 7.0 | 12.0 | 0.00 | 0.00 | 0.00 | 36 | 1021.0 |
| 20260831052504 | 81 | 249 | 8.0 | 13.0 | 0.00 | 0.00 | 0.00 | 36 | 1020.9 |
| 20260831052004 | 81 | 234 | 8.0 | 14.0 | 0.00 | 0.00 | 0.00 | 36 | 1020.9 |
| 20260831051003 | 80 | 232 | 6.0 | 12.0 | 0.00 | 0.00 | 0.00 | 37 | 1020.9 |
| 20260831050504 | 80 | 235 | 6.0 | 12.0 | 0.00 | 0.00 | 0.00 | 38 | 1021.1 |
| 20260831050004 | 80 | 229 | 5.0 | 10.0 | 0.00 | 0.00 | 0.00 | 39 | 1021.1 |
| 20260831045504 | 80 | 238 | 5.0 | 10.0 | 0.00 | 0.00 | 0.00 | 39 | 1021.1 |
| 20260831045004 | 80 | 247 | 5.0 | 10.0 | 0.00 | 0.00 | 0.00 | 38 | 1021.1 |
| 20260831044004 | 80 | 239 | 6.0 | 10.0 | 0.00 | 0.00 | 0.00 | 37 | 1020.9 |
| 20260831043504 | 81 | 225 | 5.0 | 10.0 | 0.00 | 0.00 | 0.00 | 37 | 1020.9 |
| 20260831043003 | 81 | 232 | 7.0 | 13.0 | 0.00 | 0.00 | 0.00 | 36 | 1020.8 |
| 20260831042504 | 81 | 234 | 8.0 | 12.0 | 0.00 | 0.00 | 0.00 | 37 | 1020.8 |
| 20260831042003 | 82 | 228 | 9.0 | 13.0 | 0.00 | 0.00 | 0.00 | 36 | 1020.7 |
| 20260831041503 | 82 | 229 | 4.0 | 10.0 | 0.00 | 0.00 | 0.00 | 33 | 1020.7 |
| 20260831040504 | 83 | 224 | 7.0 | 12.0 | 0.00 | 0.00 | 0.00 | 32 | 1020.4 |
| 20260831040003 | 84 | 228 | 9.0 | 15.0 | 0.00 | 0.00 | 0.00 | 31 | 1020.3 |
| 20260831035505 | 84 | 221 | 9.0 | 14.0 | 0.00 | 0.00 | 0.00 | 29 | 1020.2 |
| 20260831035003 | 83 | 221 | 9.0 | 14.0 | 0.00 | 0.00 | 0.00 | 29 | 1020.3 |
| 20260831034003 | 82 | 212 | 6.0 | 13.0 | 0.00 | 0.00 | 0.00 | 36 | 1020.3 |
| 20260831033505 | 81 | 196 | 1.0 | 6.0 | 0.00 | 0.00 | 0.00 | 37 | 1020.4 |
| 20260831032504 | 82 | 229 | 3.0 | 10.0 | 0.00 | 0.00 | 0.00 | 40 | 1020.2 |
| 20260831032003 | 82 | 219 | 6.0 | 12.0 | 0.00 | 0.00 | 0.00 | 40 | 1020.1 |
| 20260831031504 | 82 | 212 | 6.0 | 12.0 | 0.00 | 0.00 | 0.00 | 39 | 1020.0 |
| 20260831031004 | 82 | 202 | 5.0 | 10.0 | 0.00 | 0.00 | 0.00 | 40 | 1020.1 |
| 20260831030504 | 83 | 209 | 6.0 | 9.0 | 0.00 | 0.00 | 0.00 | 39 | 1020.0 |
| 20260831030004 | 83 | 217 | 5.0 | 10.0 | 0.00 | 0.00 | 0.00 | 38 | 1019.9 |
| 20260831025504 | 83 | 189 | 5.0 | 9.0 | 0.00 | 0.00 | 0.00 | 38 | 1019.9 |
| 20260831025004 | 84 | 216 | 3.0 | 8.0 | 0.00 | 0.00 | 0.00 | 37 | 1020.0 |
| 20260831024504 | 84 | 211 | 6.0 | 9.0 | 0.00 | 0.00 | 0.00 | 35 | 1019.7 |
| 20260831024003 | 85 | 205 | 6.0 | 12.0 | 0.00 | 0.00 | 0.00 | 33 | 1019.6 |
| 20260831023503 | 85 | 209 | 6.0 | 10.0 | 0.00 | 0.00 | 0.00 | 32 | 1019.4 |
| 20260831023004 | 85 | 209 | 4.0 | 8.0 | 0.00 | 0.00 | 0.00 | 30 | 1019.3 |
| 20260831022504 | 86 | 215 | 4.0 | 12.0 | 0.00 | 0.00 | 0.00 | 31 | 1019.4 |
| 20260831022004 | 86 | 224 | 8.0 | 16.0 | 0.00 | 0.00 | 0.00 | 31 | 1019.3 |
| 20260831021503 | 86 | 210 | 7.0 | 13.0 | 0.00 | 0.00 | 0.00 | 31 | 1019.3 |
| 20260831021003 | 87 | 221 | 6.0 | 14.0 | 0.00 | 0.00 | 0.00 | 29 | 1019.2 |
| 20260831020503 | 87 | 224 | 6.0 | 12.0 | 0.00 | 0.00 | 0.00 | 28 | 1019.2 |
| 20260831020004 | 88 | 232 | 6.0 | 13.0 | 0.00 | 0.00 | 0.00 | 28 | 1019.1 |
| 20260831015503 | 88 | 227 | 7.0 | 15.0 | 0.00 | 0.00 | 0.00 | 28 | 1019.1 |
| 20260831015004 | 88 | 228 | 9.0 | 15.0 | 0.00 | 0.00 | 0.00 | 28 | 1019.0 |
| 20260831014503 | 88 | 207 | 11.0 | 17.0 | 0.00 | 0.00 | 0.00 | 29 | 1019.1 |
| 20260831014005 | 89 | 224 | 6.0 | 13.0 | 0.00 | 0.00 | 0.00 | 28 | 1019.1 |
| 20260831013503 | 89 | 205 | 11.0 | 18.0 | 0.00 | 0.00 | 0.00 | 27 | 1019.1 |
| 20260831012503 | 89 | 213 | 13.0 | 25.0 | 0.00 | 0.00 | 0.00 | 27 | 1019.3 |